Weather in Hrodivka

Ukraine / Donetsk Region     48°15′45″N   37°22′45″E
temp.,
°C
wind,
m/s
gust,
m/s
humid.,
%
clouds,
%
prec.,
mm/h
press.,
hPa
HPBL,
m
26 february, fri
fri2623:00+1wsw71198100 0.1 1026272
02:00+1wsw61198100 0.1 1025260
05:00+2w4899100 0.1 1024195
08:00+2w4998100 0.1 1023216
11:00+3w4898100 0.0 1023169
14:00+5w699395 0.1 1021447
17:00+4wsw61196100 0.0 1020364
20:00+3w61097100 0.0 1019420
27 february, sat
sat2723:00+2wsw5997100 0.0 1017342
02:00+3wsw4998100 0.0 1016250
05:00+2w4898100 0.0 1014202
08:00+2w3698100 0.0 1014232
11:00+3w4898100 0.9 1013288
14:00+3wnw4798100 1.8 1013325
17:00+2wnw4995100 0.0 1013327
20:00+1nw4895100 0.1 1014371
28 february, sun
sun2823:00+1nw5896100 0.1 1015427
02:000wnw3598100 0.1 1015222
05:00+1nw3598100 0.1 1015258
08:00+1nnw3595100 0.1 1016334
11:00+1nnw3489100 0.1 1017400
14:00+3nnw4674100 0.3 1018816
17:00+2n367899 0.1 1018486
20:000n369899 0.2 1021286
1 march, mon
mon123:00−1nnw249585 0.1 1022125
02:00−2nnw359285 0.1 1023166
05:00−2nnw259485 0.0 1024251
08:00−1n238886 0.1 1025340
11:00+2nnw347086 0.1 1026764
14:00+3nnw236492 0.2 1027883
17:00+1n2381100 0.4 102758
20:00−1nne1198100 0.8 102982
2 march, tue
tue223:00−2ene229688 0.2 102955
02:00−2wnw019486 0.2 102947
05:00−1wnw238391 0.0 1029502
08:00−1w477988 0.0 1028460
11:00+2w686799 0.0 1027820
14:00+3w697299 0.0 1025952
17:00+2w61284100 0.0 1023677
20:00+2wnw61293100 0.1 1023614